Simultaneous Nadir Overpasses (SNOs) Predictions

Prediction of SNOs near US between AQUA and NPP Satellite Orbit:

Table of predicted SNOs near US for the next 10.0 days since TLE Epoch: 5/1/2016
Index Date (AQUA) Time (AQUA) AQUA Lat,Lon Date (NPP) Time (NPP) NPP Lat,Lon Distance(km) Time Diff (sec)
1 05/02/2016 19:07:10 49.97, -92.69 05/02/2016 19:02:14 49.68, -94.39 125.99 296
2 05/02/2016 20:46:03 49.98,-117.41 05/02/2016 20:43:42 49.57,-119.71 171.27 141
3 05/05/2016 08:35:48 20.01,-102.04 05/05/2016 08:27:28 18.30,-102.45 194.88 500
4 05/05/2016 10:12:38 27.41,-124.98 05/05/2016 10:06:21 27.49,-125.51 53.22 377
5 05/08/2016 07:19:26 49.89, -76.15 05/08/2016 07:21:14 50.28, -78.21 152.92 108
6 05/08/2016 08:58:19 49.89,-100.87 05/08/2016 09:02:41 50.44,-103.51 197.52 262
7 05/10/2016 18:17:31
